Home   Weather   Elverum   Past weeks

Flag for Norway Past Weather in Elverum, Norway — Yesterday and Last 2 Weeks

Now
72 °F

Mild.


Feels Like: 77 °F
Forecast: 49 / 71 °F
Wind: 5 mph from Southeast

Location: Haugedalshogda

Current Time: Jul 22, 2017 at 1:06:17 pm

Latest Report: Jul 22, 2017 at 12:00 pm


Visibility: N/A

Pressure: 30.09 "Hg

Humidity: 49%

Dew Point: 51 °F

Location of ElverumLocation

Past Weather in Elverum — Graph

°F

Elverum Temperature Yesterday

Maximum temperature yesterday: 74 °F (at 3:00 pm)
Minimum temperature yesterday: 38 °F (at 5:00 am)
Average temperature yesterday: 59 °F

High & Low Weather Summary for the Past Weeks

 TemperatureHumidityPressure
High75 °F (Jul 20, 3:00 pm)95% (Jul 13, 3:00 am)30.19 "Hg (Jul 13, 3:00 am)
Low29 °F (Jul 13, 4:00 am)27% (Jul 14, 5:00 pm)29.53 "Hg (Jul 12, 3:00 am)
Average57 °F68%29.84 "Hg
* Reported Jul 7 11:00 am — Jul 22 11:00 am, Elverum. Weather by CustomWeather, © 2017

Note: Actual official high and low records may vary slightly from our data, if they occured in-between our weather recording intervals... More about our weather records

Advertising

Elverum Weather History for the Previous 24 Hours

Scroll right to see more
 ConditionsComfort  
Time TempWeatherWind HumidityBarometerVisibility
11:00 am
Sat, Jul 22
71 °FMild.5 mph51%30.10 "HgN/A
10:00 am67 °FMild.3 mph58%30.11 "HgN/A
9:00 am60 °FCool.1 mph66%30.13 "HgN/A
8:00 am58 °FCool.1 mph67%30.15 "HgN/A
7:00 am53 °FCool.1 mph73%30.15 "HgN/A
6:00 am45 °FQuite cool.No wind93%30.16 "HgN/A
5:00 am40 °FChilly.1 mph92%30.16 "HgN/A
4:00 am43 °FQuite cool.No wind92%30.15 "HgN/A
3:00 am44 °FQuite cool.1 mph90%30.14 "HgN/A
2:00 am48 °FCool.1 mph84%30.13 "HgN/A
1:00 am49 °FCool.3 mph83%30.12 "HgN/A
12:00 am55 °FCool.3 mph73%30.10 "HgN/A
11:00 pm
Fri, Jul 21
58 °FCool.3 mph65%30.09 "HgN/A
10:00 pm60 °FRefreshingly cool.3 mph60%30.07 "HgN/A
9:00 pm65 °FMild.5 mph47%30.05 "HgN/A
8:00 pm67 °FMild.6 mph45%30.03 "HgN/A
7:00 pm71 °FMild.6 mph42%30.01 "HgN/A
6:00 pm72 °FMild.6 mph41%30.00 "HgN/A
5:00 pm74 °FMild.6 mph39%29.98 "HgN/A
4:00 pm73 °FMild.7 mph41%29.98 "HgN/A
3:00 pm74 °FMild.7 mph44%29.98 "HgN/A
2:00 pm73 °FMild.7 mph45%29.98 "HgN/A
Weather by CustomWeather, © 2017

See weather overviewHow to use our weather pages